Grand Junction, CO

9:31 PM MDT on September 18, 2019 (GMT -0600)
Walker

Weather History for KGJT - April, 2019

Change the Weather History Date:

Tuesday, April 23, 2019

  Actual Average Record
Temperature  
Mean Temperature 59 °F 54 °F  
Max Temperature 74 °F 68 °F 89 °F (2012)
Min Temperature 44 °F 40 °F 28 °F (1968)
Degree Days  
Heating Degree Days 6 11  
Month to date heating degree days 255 332  
Since 1 July heating degree days 5363 5364  
Cooling Degree Days 0 0  
Month to date cooling degree days 0 0  
Year to date cooling degree days 0 0  
Growing Degree Days 9 (Base 50)    
Moisture  
Dew Point 35 °F    
Average Humidity 45    
Maximum Humidity 70    
Minimum Humidity 20    
Precipitation  
Precipitation 0.00 in 0.02 in 0.38 in (2007)
Month to date precipitation 0.38 0.71  
Year to date precipitation 4.11 2.75  
Snow  
Snow 0.00 in 0.00 in 0.00 in (2002)
Month to date snowfall T 0.8  
Since 1 July snowfall 17.4 18.9  
Snow Depth 0.00 in    
Sea Level Pressure  
Sea Level Pressure 29.90 in    
Wind  
Wind Speed 6 mph (WNW)    
Max Wind Speed 21 mph    
Max Gust Speed 31 mph    
Visibility 10 miles    
Events      
T = Trace of Precipitation, MM = Missing Value Source: NWS Daily Summary

Daily Weather History Graph

Daily Weather History Graph

Search for Another Location

Airport or City:

Astronomy

Apr. 23, 2019 Rise Set
Actual Time 6:26 AM MDT 7:59 PM MDT
Civil Twilight 5:58 AM MDT 8:27 PM MDT
Nautical Twilight 5:24 AM MDT 9:01 PM MDT
Astronomical Twilight 4:48 AM MDT 9:37 PM MDT
Moon No Moon Rise 9:37 AM MDT (4/23)
Length of Visible Light 14h 29m
Length of Day
13h 32m
Waning Gibbous, 79% of the Moon is Illuminated
Apr 23
Waning Gibbous
Apr 26
Last Quarter
May 4
New
May 11
First Quarter
May 18
Full

Hourly Weather History & Observations

Time (MDT) Temp. Windchill Dew Point Humidity Pressure Visibility Wind Dir Wind Speed Gust Speed Precip Events Conditions
12:53 AM 53.1 °F - 36.0 °F 52% 29.96 in 10.0 mi NE 8.1 mph - N/A   Clear
1:53 AM 55.9 °F - 34.0 °F 44% 29.93 in 10.0 mi North 12.7 mph 18.4 mph N/A   Clear
2:53 AM 55.0 °F - 34.0 °F 45% 29.93 in 10.0 mi Variable 3.5 mph - N/A   Clear
3:53 AM 50.0 °F - 36.0 °F 59% 29.94 in 10.0 mi NW 3.5 mph - N/A   Clear
4:53 AM 45.0 °F 42.6 °F 36.0 °F 71% 29.96 in 10.0 mi ENE 4.6 mph - N/A   Clear
5:53 AM 50.0 °F - 36.0 °F 59% 29.95 in 10.0 mi NE 6.9 mph - N/A   Clear
6:53 AM 46.9 °F - 36.0 °F 66% 29.97 in 10.0 mi North - - N/A   Clear
7:53 AM 52.0 °F - 37.9 °F 59% 29.98 in 10.0 mi South 5.8 mph - N/A   Clear
8:53 AM 57.0 °F - 37.9 °F 49% 29.98 in 10.0 mi West 3.5 mph - N/A   Clear
9:53 AM 59.0 °F - 37.9 °F 46% 29.97 in 10.0 mi Calm Calm - N/A   Clear
10:53 AM 62.1 °F - 37.9 °F 41% 29.96 in 10.0 mi SSW 3.5 mph - N/A   Clear
11:53 AM 64.9 °F - 37.9 °F 37% 29.94 in 10.0 mi Calm Calm - N/A   Clear
12:53 PM 66.9 °F - 37.9 °F 34% 29.91 in 10.0 mi Calm Calm - N/A   Clear
1:53 PM 70.0 °F - 37.0 °F 30% 29.87 in 10.0 mi WSW 3.5 mph - N/A   Clear
2:53 PM 71.1 °F - 35.1 °F 27% 29.85 in 10.0 mi North - - N/A   Clear
3:53 PM 73.0 °F - 35.1 °F 25% 29.83 in 10.0 mi West 9.2 mph - N/A   Clear
4:53 PM 73.9 °F - 32.0 °F 21% 29.82 in 10.0 mi West 9.2 mph - N/A   Scattered Clouds
5:53 PM 73.9 °F - 30.9 °F 21% 29.80 in 10.0 mi WNW 11.5 mph 18.4 mph N/A   Scattered Clouds
6:53 PM 71.1 °F - 32.0 °F 24% 29.81 in 10.0 mi WNW 13.8 mph - N/A   Scattered Clouds
7:53 PM 68.0 °F - 32.0 °F 26% 29.81 in 10.0 mi WNW 5.8 mph - N/A   Mostly Cloudy
8:53 PM 62.1 °F - 33.1 °F 34% 29.84 in 10.0 mi NW 9.2 mph - N/A   Overcast
9:53 PM 59.0 °F - 35.1 °F 41% 29.86 in 10.0 mi West 8.1 mph - N/A   Clear
10:53 PM 55.9 °F - 34.0 °F 44% 29.89 in 10.0 mi WNW 4.6 mph - N/A   Clear
11:53 PM 57.0 °F - 33.1 °F 40% 29.88 in 10.0 mi West 3.5 mph - N/A   Clear